Location: *
(50.6089°N, 2.2719°E)
Time: 16:27:27
(UTC+00:00)

Cosmos 1605 Rocket - Pass Details

Date: 18 October 2019
Orbit: 944 x 1007 km, 82.9° (Epoch: 20 November)

Event Time Altitude Azimuth Distance (km) Brightness Sun altitude
Rises 17:29:16 0° 353° (N) 3,687 7.0 -6.4°
Reaches altitude 10° 17:31:57 10° 0° (N) 2,726 6.3 -6.8°
Maximum altitude 17:37:52 43° 71° (ENE) 1,321 4.3 -7.8°
Drops below altitude 10° 17:43:39 10° 143° (SE) 2,673 6.0 -8.7°
Sets 17:46:15 0° 150° (SSE) 3,608 6.7 -9.1°
